| time (UTC) | temp C | wind direction | speed KPH | gust KPH | rain 1hr cm | rain 24hr cm | rain mn cm | humidity % | barometer mb |
| 20260502195716 | 16 | 48 | 4.8 | 6.4 | 0.00 | 0.00 | 0.00 | 60 | 1018.7 |
| 20260502194715 | 16 | 48 | 4.8 | 6.4 | 0.00 | 0.00 | 0.00 | 61 | 1018.7 |
| 20260502193716 | 16 | 58 | 4.8 | 6.4 | 0.00 | 0.00 | 0.00 | 62 | 1018.7 |
| 20260502192716 | 16 | 54 | 4.8 | 6.4 | 0.00 | 0.00 | 0.00 | 64 | 1018.7 |
| 20260502191717 | 16 | 58 | 4.8 | 4.8 | 0.00 | 0.00 | 0.00 | 63 | 1018.6 |
| 20260502190717 | 16 | 59 | 4.8 | 4.8 | 0.00 | 0.00 | 0.00 | 63 | 1018.6 |
| 20260502185717 | 16 | 59 | 4.8 | 4.8 | 0.00 | 0.00 | 0.00 | 64 | 1018.5 |
| 20260502184715 | 15 | 59 | 3.2 | 4.8 | 0.00 | 0.00 | 0.00 | 66 | 1018.5 |
| 20260502183716 | 16 | 53 | 4.8 | 6.4 | 0.00 | 0.00 | 0.00 | 66 | 1018.5 |
| 20260502182716 | 16 | 57 | 3.2 | 6.4 | 0.00 | 0.00 | 0.00 | 66 | 1018.5 |
| 20260502181716 | 16 | 59 | 3.2 | 4.8 | 0.00 | 0.00 | 0.00 | 66 | 1018.5 |
| 20260502180717 | 17 | 53 | 4.8 | 8.0 | 0.00 | 0.00 | 0.00 | 63 | 1018.4 |
| 20260502163718 | 23 | 51 | 3.2 | 8.0 | 0.00 | 0.00 | 0.00 | 41 | 1018.7 |
| 20260502162716 | 24 | 48 | 4.8 | 8.0 | 0.00 | 0.00 | 0.00 | 39 | 1018.7 |
| 20260502161716 | 25 | 56 | 1.6 | 4.8 | 0.00 | 0.00 | 0.00 | 40 | 1018.9 |
| 20260502160716 | 24 | 46 | 3.2 | 9.7 | 0.00 | 0.00 | 0.00 | 41 | 1019.0 |
| 20260502151715 | 25 | 20 | 3.2 | 8.0 | 0.00 | 0.00 | 0.00 | 39 | 1019.5 |
| 20260502150716 | 24 | 37 | 3.2 | 6.4 | 0.00 | 0.00 | 0.00 | 40 | 1019.5 |
| 20260502130715 | 23 | 48 | 3.2 | 6.4 | 0.00 | 0.00 | 0.00 | 42 | 1021.3 |
| 20260502123716 | 22 | 353 | 3.2 | 6.4 | 0.00 | 0.00 | 0.00 | 46 | 1021.6 |
| 20260502122717 | 22 | 242 | 3.2 | 11.3 | 0.00 | 0.00 | 0.00 | 48 | 1021.7 |
| 20260502121717 | 23 | 241 | 3.2 | 8.0 | 0.00 | 0.00 | 0.00 | 48 | 1021.8 |
| 20260502120717 | 23 | 202 | 1.6 | 4.8 | 0.00 | 0.00 | 0.00 | 51 | 1022.0 |
| 20260502115715 | 22 | 218 | 4.8 | 9.7 | 0.00 | 0.00 | 0.00 | 53 | 1022.1 |
| 20260502114716 | 21 | 53 | 1.6 | 6.4 | 0.00 | 0.00 | 0.00 | 53 | 1022.3 |
| 20260502113716 | 22 | 252 | 3.2 | 6.4 | 0.00 | 0.00 | 0.00 | 53 | 1022.5 |
| 20260502112716 | 22 | 259 | 1.6 | 6.4 | 0.00 | 0.00 | 0.00 | 54 | 1022.6 |
| 20260502111717 | 21 | 267 | 1.6 | 6.4 | 0.00 | 0.00 | 0.00 | 54 | 1022.7 |
| 20260502110717 | 21 | 219 | 1.6 | 6.4 | 0.00 | 0.00 | 0.00 | 55 | 1023.0 |
| 20260502105717 | 20 | 228 | 1.6 | 6.4 | 0.00 | 0.00 | 0.00 | 56 | 1023.1 |
| 20260502104715 | 20 | 234 | 1.6 | 4.8 | 0.00 | 0.00 | 0.00 | 56 | 1023.2 |
| 20260502103716 | 20 | 259 | 3.2 | 6.4 | 0.00 | 0.00 | 0.00 | 55 | 1023.3 |
| 20260502102716 | 20 | 302 | 1.6 | 6.4 | 0.00 | 0.00 | 0.00 | 55 | 1023.4 |
| 20260502101716 | 20 | 244 | 1.6 | 6.4 | 0.00 | 0.00 | 0.00 | 55 | 1023.6 |
| 20260502100717 | 20 | 299 | 0.0 | 1.6 | 0.00 | 0.00 | 0.00 | 53 | 1023.7 |
| 20260502090716 | 16 | 197 | 1.6 | 4.8 | 0.00 | 0.00 | 0.00 | 62 | 1024.3 |
| 20260502070715 | 13 | 0.0 | 0.0 | 0.00 | 0.00 | 0.00 | 65 | 1024.5 | |
| 20260502065717 | 13 | 0.0 | 0.0 | 0.00 | 0.00 | 0.00 | 65 | 1024.5 | |
| 20260502064716 | 12 | 0.0 | 0.0 | 0.00 | 0.00 | 0.00 | 66 | 1024.5 | |
| 20260502063717 | 12 | 0.0 | 0.0 | 0.00 | 0.00 | 0.00 | 66 | 1024.5 | |
| 20260502062717 | 12 | 0.0 | 0.0 | 0.00 | 0.00 | 0.00 | 67 | 1024.4 | |
| 20260502061717 | 12 | 0.0 | 0.0 | 0.00 | 0.00 | 0.00 | 66 | 1024.4 | |
| 20260502060715 | 11 | 0.0 | 0.0 | 0.00 | 0.00 | 0.00 | 69 | 1024.5 | |
| 20260502055715 | 11 | 0.0 | 0.0 | 0.00 | 0.00 | 0.00 | 67 | 1024.5 | |
| 20260502054716 | 11 | 141 | 0.0 | 1.6 | 0.00 | 0.00 | 0.00 | 69 | 1024.4 |
| 20260502053716 | 11 | 0.0 | 0.0 | 0.00 | 0.00 | 0.00 | 70 | 1024.4 | |
| 20260502052717 | 11 | 0.0 | 0.0 | 0.00 | 0.00 | 0.00 | 67 | 1024.4 | |
| 20260502051717 | 10 | 134 | 1.6 | 8.0 | 0.00 | 0.00 | 0.00 | 69 | 1024.3 |
| 20260502050718 | 10 | 0.0 | 0.0 | 0.00 | 0.00 | 0.00 | 69 | 1024.3 | |
| 20260502045715 | 9 | 0.0 | 0.0 | 0.00 | 0.00 | 0.00 | 69 | 1024.2 | |
| 20260502044716 | 8 | 0.0 | 0.0 | 0.00 | 0.00 | 0.00 | 72 | 1024.3 | |
| 20260502043716 | 9 | 0.0 | 0.0 | 0.00 | 0.00 | 0.00 | 70 | 1024.2 | |
| 20260502042717 | 9 | 0.0 | 0.0 | 0.00 | 0.00 | 0.00 | 69 | 1024.2 | |
| 20260502041717 | 9 | 0.0 | 0.0 | 0.00 | 0.00 | 0.00 | 69 | 1024.3 | |
| 20260502040717 | 8 | 0.0 | 0.0 | 0.00 | 0.00 | 0.00 | 70 | 1024.2 | |
| 20260502035718 | 9 | 0.0 | 0.0 | 0.00 | 0.00 | 0.00 | 69 | 1024.1 | |
| 20260502034715 | 9 | 0.0 | 0.0 | 0.00 | 0.00 | 0.00 | 70 | 1024.1 | |
| 20260502033716 | 8 | 73 | 0.0 | 1.6 | 0.00 | 0.00 | 0.00 | 72 | 1024.1 |
| 20260502032716 | 8 | 73 | 0.0 | 1.6 | 0.00 | 0.00 | 0.00 | 74 | 1024.1 |
| 20260502031716 | 8 | 55 | 1.6 | 1.6 | 0.00 | 0.00 | 0.00 | 74 | 1024.1 |
| 20260502030717 | 8 | 54 | 3.2 | 4.8 | 0.00 | 0.00 | 0.00 | 73 | 1024.1 |
| 20260502025717 | 9 | 68 | 1.6 | 4.8 | 0.00 | 0.00 | 0.00 | 70 | 1024.1 |
| 20260502024718 | 8 | 70 | 1.6 | 3.2 | 0.00 | 0.00 | 0.00 | 72 | 1024.2 |
| 20260502023715 | 8 | 55 | 3.2 | 4.8 | 0.00 | 0.00 | 0.00 | 72 | 1024.1 |
| 20260502022716 | 8 | 67 | 1.6 | 3.2 | 0.00 | 0.00 | 0.00 | 70 | 1024.2 |
| 20260502021716 | 8 | 58 | 1.6 | 4.8 | 0.00 | 0.00 | 0.00 | 71 | 1024.2 |
| 20260502020716 | 9 | 59 | 1.6 | 3.2 | 0.00 | 0.00 | 0.00 | 69 | 1024.1 |
| 20260502015717 | 9 | 68 | 0.0 | 3.2 | 0.00 | 0.00 | 0.00 | 68 | 1024.1 |
| 20260502014717 | 10 | 54 | 3.2 | 4.8 | 0.00 | 0.00 | 0.00 | 66 | 1024.1 |
| 20260502013718 | 11 | 56 | 1.6 | 4.8 | 0.00 | 0.00 | 0.00 | 62 | 1024.2 |
| 20260502012715 | 11 | 50 | 4.8 | 8.0 | 0.00 | 0.00 | 0.00 | 62 | 1024.1 |
| 20260502011716 | 11 | 52 | 4.8 | 11.3 | 0.00 | 0.00 | 0.00 | 60 | 1024.1 |
| 20260502010716 | 12 | 44 | 6.4 | 12.9 | 0.00 | 0.00 | 0.00 | 59 | 1024.1 |
| 20260502005716 | 11 | 44 | 6.4 | 11.3 | 0.00 | 0.00 | 0.00 | 61 | 1024.0 |
| 20260502004717 | 11 | 43 | 6.4 | 11.3 | 0.00 | 0.00 | 0.00 | 61 | 1024.1 |
| 20260502003717 | 11 | 48 | 4.8 | 8.0 | 0.00 | 0.00 | 0.00 | 62 | 1024.2 |
| 20260502002718 | 10 | 47 | 4.8 | 8.0 | 0.00 | 0.00 | 0.00 | 63 | 1024.3 |
| 20260502001715 | 11 | 50 | 3.2 | 6.4 | 0.00 | 0.00 | 0.00 | 61 | 1024.3 |
| 20260502000716 | 11 | 99 | 0.0 | 4.8 | 0.00 | 0.00 | 0.00 | 59 | 1024.3 |
| 20260501235716 | 11 | 48 | 8.0 | 14.5 | 0.00 | 0.00 | 0.00 | 60 | 1024.3 |
| 20260501234717 | 11 | 58 | 6.4 | 9.7 | 0.00 | 0.00 | 0.00 | 59 | 1024.3 |
| 20260501233717 | 11 | 45 | 4.8 | 8.0 | 0.00 | 0.00 | 0.00 | 59 | 1024.3 |
| 20260501232717 | 11 | 44 | 4.8 | 8.0 | 0.00 | 0.00 | 0.00 | 58 | 1024.3 |
| 20260501231718 | 11 | 72 | 0.0 | 4.8 | 0.00 | 0.00 | 0.00 | 59 | 1024.4 |
| 20260501230715 | 11 | 43 | 6.4 | 8.0 | 0.00 | 0.00 | 0.00 | 60 | 1024.4 |
| 20260501225716 | 11 | 47 | 6.4 | 8.0 | 0.00 | 0.00 | 0.00 | 61 | 1024.4 |
| 20260501224716 | 11 | 48 | 4.8 | 6.4 | 0.00 | 0.00 | 0.00 | 60 | 1024.4 |
| 20260501222717 | 11 | 59 | 4.8 | 6.4 | 0.00 | 0.00 | 0.00 | 58 | 1024.4 |
| 20260501221717 | 11 | 58 | 4.8 | 6.4 | 0.00 | 0.00 | 0.00 | 57 | 1024.3 |
| 20260501220718 | 11 | 57 | 4.8 | 6.4 | 0.00 | 0.00 | 0.00 | 56 | 1024.3 |
| 20260501215716 | 12 | 53 | 4.8 | 6.4 | 0.00 | 0.00 | 0.00 | 57 | 1024.3 |
| 20260501214716 | 12 | 54 | 4.8 | 6.4 | 0.00 | 0.00 | 0.00 | 54 | 1024.3 |
| 20260501213716 | 12 | 56 | 4.8 | 6.4 | 0.00 | 0.00 | 0.00 | 53 | 1024.3 |
| 20260501212716 | 12 | 48 | 4.8 | 6.4 | 0.00 | 0.00 | 0.00 | 52 | 1024.3 |
| 20260501211717 | 12 | 49 | 6.4 | 8.0 | 0.00 | 0.00 | 0.00 | 52 | 1024.3 |
| 20260501210717 | 13 | 54 | 6.4 | 8.0 | 0.00 | 0.00 | 0.00 | 51 | 1024.2 |
| 20260501205718 | 13 | 52 | 6.4 | 8.0 | 0.00 | 0.00 | 0.00 | 50 | 1024.3 |
| 20260501204715 | 13 | 53 | 6.4 | 8.0 | 0.00 | 0.00 | 0.00 | 51 | 1024.3 |
| 20260501203716 | 13 | 45 | 6.4 | 9.7 | 0.00 | 0.00 | 0.00 | 49 | 1024.3 |
| 20260501202716 | 13 | 53 | 6.4 | 11.3 | 0.00 | 0.00 | 0.00 | 49 | 1024.3 |
| 20260501201717 | 13 | 53 | 6.4 | 9.7 | 0.00 | 0.00 | 0.00 | 48 | 1024.3 |
| 20260501200717 | 13 | 51 | 6.4 | 9.7 | 0.00 | 0.00 | 0.00 | 48 | 1024.4 |